[[{"header":{"parameterUnit":"m.s-1","parameterCategory":1,"la1":30.2991,"la2":30.254,"lo1":-89.0895,"lo2":-89.0444,"dy":0.0017,"dx":0.0017,"nx":28,"ny":28,"refTime":"2023-05-28T21:00:00:Z","depth":0,"parameterNumber":2,"parameterNumberName":"U-component_of_WINDS"},"data":[0,0,0,0,0,0,0,0,0,0,0,0,0,0,0,0,0,0,0,0,0,0,0,0,0,0,0,0,0,0,0,0,0,0,0,0,0,0,0,0,0,0,0,0,0,0,0,0,0,0,0,0,0,0,0,0,0,0,1.3684,1.3685,0,1.3736,1.3737,1.3737,1.3711,1.371,1.3709,1.3707,1.3763,1.3766,1.3769,0,0,0,0,0,0,0,0,0,0,0,0,0,1.3567,1.3569,1.3684,1.3685,1.3686,1.3736,1.3737,1.3737,1.3712,1.371,1.3708,1.3707,1.3763,1.3766,1.3769,0,0,0,0,0,0,0,0,0,0,0,0,0,1.3619,1.357,1.3684,1.3679,1.3679,1.3736,1.3737,1.3738,1.3712,1.371,1.3708,1.3706,1.3761,1.3765,1.377,1.3836,0,0,1.3782,1.3784,0,0,0,0,0,0,0,0,1.3616,1.3623,1.3679,1.3679,1.3679,1.3715,1.3716,1.3771,1.3712,1.3699,1.3707,1.3705,1.3749,1.3754,1.3768,1.3839,1.3841,1.3783,1.3785,1.3787,1.3788,0,0,0,0,0,0,0,1.3612,1.3621,1.3705,1.368,1.368,1.3675,1.368,1.3726,1.3735,1.37,1.3699,1.3705,1.3749,1.3765,1.377,1.3842,1.3782,1.3786,1.3789,1.379,1.3971,1.3973,0,0,0,0,0,0,1.3608,1.3618,1.3703,1.3706,1.3642,1.3679,1.3684,1.3706,1.3735,1.3737,1.3707,1.3704,1.3758,1.3765,1.3772,1.3852,1.3787,1.3791,1.3793,1.3969,1.3971,1.3974,0,0,0,0,0,0,1.3606,1.3616,1.3701,1.3662,1.3672,1.3683,1.3707,1.3708,1.3723,1.3739,1.3741,1.3721,1.3757,1.3766,1.382,1.3854,1.3793,1.3796,1.3966,1.397,1.3973,1.4014,0,0,0,0,0,0,1.3603,1.3615,1.364,1.3662,1.3674,1.3748,1.3709,1.371,1.373,1.3727,1.3753,1.3755,1.3756,1.3814,1.3824,1.3859,1.38,1.3963,1.3968,1.3972,1.401,1.4018,1.4026,0,0,0,0,0,1.3599,1.365,1.3641,1.3652,1.3705,1.375,1.3757,1.3756,1.3733,1.3758,1.3769,1.3755,1.3848,1.382,1.3831,1.3867,1.3961,1.3966,1.3971,1.4006,1.4017,1.4026,0,0,0,0,0,0,1.3631,1.3652,1.3643,1.3703,1.3725,1.3745,1.3777,1.3767,1.3797,1.3792,1.3791,1.3797,1.3854,1.3866,1.3834,1.3934,1.3901,1.3909,1.3924,1.3934,1.3942,1.3939,1.3803,0,0,0,0,0,1.3646,1.3679,1.3696,1.3747,1.3759,1.3766,1.3786,1.3783,1.3806,1.3816,1.383,1.3854,1.3889,1.3912,1.3945,1.4011,1.4018,1.4042,1.405,1.4056,1.4063,1.4101,1.4112,1.3991,1.3991,1.3991,0,0,1.3675,1.3691,1.3712,1.3755,1.3771,1.3808,1.3774,1.3814,1.3842,1.3822,1.3875,1.3886,1.3913,1.3974,1.4002,1.3986,1.4098,1.4063,1.4068,1.4071,1.4107,1.4119,1.4129,1.3995,1.3994,1.3993,0,0,1.3748,1.3763,1.3808,1.3825,1.385,1.3855,1.3866,1.3889,1.3896,1.3948,1.3935,1.3968,1.4028,1.4048,1.4066,1.4148,1.4137,1.4159,1.4202,1.4238,1.4248,1.4256,1.4287,1.4298,1.4166,1.4166,1.4166,0,1.3782,1.3835,1.3832,1.3873,1.3893,1.3876,1.3923,1.394,1.3976,1.399,1.3972,1.4048,1.4064,1.413,1.4151,1.4165,1.4179,1.4156,1.4246,1.4255,1.4263,1.4292,1.4303,1.4168,1.4168,1.4168,1.4167,0,1.3877,1.3914,1.3948,1.3982,1.4005,1.4049,1.4053,1.4078,1.4073,1.4081,1.4135,1.4155,1.4192,1.4208,1.4204,1.4274,1.4264,1.4246,1.4213,1.4277,1.4305,1.4316,1.4172,1.4171,1.417,1.417,0,0,1.3972,1.4004,1.4016,1.4032,1.406,1.4089,1.4133,1.4169,1.419,1.4216,1.4253,1.4305,1.4289,1.4309,1.4308,1.434,1.4406,1.4318,1.4319,1.4335,1.4486,1.45,1.4513,1.4398,1.44,1.4402,1.4484,0,1.4047,1.4123,1.4122,1.4192,1.4228,1.4213,1.4251,1.4273,1.4281,1.4314,1.4323,1.436,1.4336,1.4348,1.4379,1.4391,1.4436,1.4385,1.4435,1.4436,1.4429,1.4527,1.4542,1.4619,1.4495,1.4497,1.4498,0,1.4146,1.4174,1.4248,1.4271,1.4286,1.432,1.4354,1.4384,1.441,1.4414,1.4437,1.4431,1.4477,1.4443,1.4507,1.4472,1.4493,1.4502,1.4505,1.451,1.4472,1.4536,1.4643,1.4655,1.4515,1.4513,1.4512,0,1.4209,1.4266,1.4317,1.4331,1.436,1.4384,1.4398,1.4421,1.4443,1.4472,1.4487,1.4522,1.4542,1.457,1.4574,1.4548,1.4639,1.4605,1.4645,1.4645,1.4666,1.4665,1.4778,1.4677,1.4677,1.4677,1.4677,0,1.4294,1.4341,1.4346,1.4378,1.443,1.4429,1.4481,1.4492,1.4513,1.4548,1.4538,1.4571,1.4574,1.4609,1.4613,1.4667,1.4675,1.4681,1.4682,1.4683,1.4682,1.4697,1.4692,1.468,1.4679,1.4679,1.4678,0,1.4374,1.438,1.4436,1.4458,1.4465,1.4502,1.4522,1.4553,1.4561,1.4605,1.4616,1.4628,1.4669,1.4676,1.4724,1.4726,1.4791,1.4786,1.4782,1.4782,1.4823,1.4819,1.4951,1.4969,1.4855,1.4856,1.4856,0,1.4429,1.4464,1.449,1.4512,1.4527,1.4563,1.4585,1.4586,1.4611,1.4643,1.4671,1.471,1.4742,1.4808,1.4822,1.4859,1.4855,1.4899,1.4861,1.4861,1.4858,1.4856,1.486,1.4906,1.4907,1.4908,1.4909,0,1.4526,1.4527,1.4559,1.4593,1.462,1.4647,1.4672,1.4691,1.4696,1.4724,1.4765,1.4789,1.4839,1.4879,1.4916,1.4931,1.4922,1.4921,1.4933,1.4934,1.4932,1.4935,1.4804,1.4918,1.4917,1.4917,1.4916,1.4916,1.4595,1.4626,1.465,1.4687,1.4706,1.473,1.4761,1.4773,1.4806,1.4846,1.4845,1.489,1.4916,1.4965,1.4983,1.502,1.5006,1.5022,1.5027,1.5031,1.5035,1.4925,1.5026,1.5026,1.5026,1.5025,1.5025,0,1.4693,1.4707,1.4741,1.4777,1.4806,1.4794,1.4822,1.4848,1.4888,1.4912,1.4943,1.4992,1.5031,1.5048,1.5087,1.5113,1.511,1.5123,1.5122,1.5126,1.5045,1.5032,1.5125,1.5125,1.5125,1.5125,1.5125,1.5125,1.4747,1.4799,1.4804,1.4866,1.4881,1.4925,1.4942,1.4965,1.4984,1.5038,1.5071,1.5081,1.5103,1.5144,1.518,1.5184,1.52,1.5215,1.5218,1.5142,1.5132,1.5122,1.511,1.5218,1.5218,1.5296,1.5297,1.5297]},{"header":{"parameterUnit":"m.s-1","parameterCategory":1,"la1":30.2991,"la2":30.254,"lo1":-89.0895,"lo2":-89.0444,"dy":0.0017,"dx":0.0017,"nx":28,"ny":28,"refTime":"2023-05-28T21:00:00:Z","depth":0,"parameterNumber":3,"parameterNumberName":"V-component_of_WINDS"},"data":[0,0,0,0,0,0,0,0,0,0,0,0,0,0,0,0,0,0,0,0,0,0,0,0,0,0,0,0,0,0,0,0,0,0,0,0,0,0,0,0,0,0,0,0,0,0,0,0,0,0,0,0,0,0,0,0,0,0,-1.3214,-1.3215,0,-1.3252,-1.3252,-1.3252,-1.3268,-1.3268,-1.3268,-1.3268,-1.3304,-1.3305,-1.3306,0,0,0,0,0,0,0,0,0,0,0,0,0,-1.3156,-1.3157,-1.3214,-1.3215,-1.3215,-1.3251,-1.3252,-1.3252,-1.3268,-1.3268,-1.3268,-1.3268,-1.3304,-1.3305,-1.3306,0,0,0,0,0,0,0,0,0,0,0,0,0,-1.3186,-1.3157,-1.3214,-1.3227,-1.3229,-1.3251,-1.3252,-1.3253,-1.3268,-1.3268,-1.3268,-1.3268,-1.3304,-1.3305,-1.3307,-1.3318,0,0,-1.3311,-1.3312,0,0,0,0,0,0,0,0,-1.3184,-1.3188,-1.3225,-1.3226,-1.3228,-1.3255,-1.3245,-1.3275,-1.3268,-1.3253,-1.3268,-1.3268,-1.3288,-1.3291,-1.3298,-1.332,-1.3321,-1.3311,-1.3312,-1.3313,-1.3314,0,0,0,0,0,0,0,-1.3182,-1.3186,-1.3229,-1.3225,-1.3227,-1.3231,-1.3235,-1.325,-1.3271,-1.3254,-1.3256,-1.326,-1.3289,-1.3296,-1.3299,-1.3322,-1.3311,-1.3313,-1.3314,-1.3314,-1.3357,-1.3357,0,0,0,0,0,0,-1.3178,-1.3185,-1.3228,-1.323,-1.3206,-1.3232,-1.3237,-1.3247,-1.327,-1.3274,-1.326,-1.3261,-1.3294,-1.3297,-1.33,-1.3317,-1.3313,-1.3315,-1.3315,-1.3357,-1.3357,-1.3357,0,0,0,0,0,0,-1.3177,-1.3182,-1.3226,-1.3208,-1.3214,-1.3233,-1.3244,-1.3247,-1.3255,-1.3275,-1.3278,-1.3264,-1.3294,-1.3298,-1.3314,-1.3318,-1.3315,-1.3317,-1.3357,-1.3357,-1.3357,-1.3349,0,0,0,0,0,0,-1.3175,-1.3181,-1.3186,-1.3208,-1.3215,-1.324,-1.3244,-1.3248,-1.3258,-1.3259,-1.328,-1.3283,-1.3294,-1.3312,-1.3316,-1.332,-1.3318,-1.3356,-1.3357,-1.3357,-1.3349,-1.3349,-1.3349,0,0,0,0,0,-1.3173,-1.3181,-1.3186,-1.3191,-1.3221,-1.324,-1.3244,-1.3257,-1.3258,-1.3263,-1.3276,-1.3282,-1.3317,-1.3313,-1.3318,-1.3323,-1.3356,-1.3357,-1.3357,-1.3349,-1.3349,-1.3349,0,0,0,0,0,0,-1.3157,-1.3184,-1.319,-1.3205,-1.322,-1.3242,-1.3249,-1.3256,-1.3271,-1.3271,-1.3286,-1.3291,-1.3306,-1.3316,-1.3311,-1.3336,-1.3337,-1.3339,-1.3329,-1.3329,-1.3329,-1.3327,-1.3319,0,0,0,0,0,-1.3156,-1.317,-1.3192,-1.3204,-1.3211,-1.3229,-1.3237,-1.3247,-1.3262,-1.3269,-1.3283,-1.3298,-1.3312,-1.3321,-1.3335,-1.335,-1.3356,-1.3356,-1.3356,-1.3356,-1.3357,-1.3367,-1.3368,-1.3359,-1.3359,-1.3359,0,0,-1.3153,-1.3169,-1.3177,-1.3201,-1.3214,-1.3228,-1.3234,-1.3248,-1.3258,-1.327,-1.3287,-1.3298,-1.3316,-1.3332,-1.3339,-1.3341,-1.3361,-1.3357,-1.3356,-1.3358,-1.3368,-1.3369,-1.337,-1.3359,-1.3359,-1.3359,0,0,-1.3155,-1.3168,-1.318,-1.3194,-1.3213,-1.3225,-1.3228,-1.325,-1.3258,-1.3275,-1.3285,-1.3297,-1.3322,-1.3334,-1.3344,-1.3353,-1.3359,-1.3357,-1.3357,-1.3367,-1.3367,-1.3368,-1.3372,-1.3374,-1.3358,-1.3358,-1.3358,0,-1.3149,-1.317,-1.3185,-1.32,-1.321,-1.3223,-1.3236,-1.3248,-1.3271,-1.3278,-1.3279,-1.3311,-1.3323,-1.3343,-1.3346,-1.3353,-1.3357,-1.3355,-1.3366,-1.3367,-1.3368,-1.3372,-1.3374,-1.3357,-1.3357,-1.3358,-1.3358,0,-1.3162,-1.3177,-1.3185,-1.3208,-1.322,-1.3233,-1.325,-1.326,-1.3268,-1.328,-1.3298,-1.3314,-1.3333,-1.3338,-1.3346,-1.336,-1.336,-1.3363,-1.3365,-1.3368,-1.3373,-1.3374,-1.3357,-1.3357,-1.3357,-1.3357,0,0,-1.3155,-1.3188,-1.319,-1.3202,-1.3226,-1.3237,-1.3251,-1.3271,-1.3279,-1.3295,-1.3308,-1.3329,-1.3333,-1.3344,-1.3353,-1.3362,-1.3369,-1.3364,-1.3365,-1.3366,-1.3387,-1.3385,-1.3387,-1.3374,-1.3374,-1.3374,-1.3386,0,-1.3161,-1.3188,-1.3202,-1.3223,-1.3238,-1.3251,-1.3263,-1.3279,-1.3291,-1.3305,-1.3318,-1.3333,-1.3337,-1.3344,-1.3353,-1.3366,-1.3374,-1.3366,-1.3386,-1.3387,-1.3382,-1.3389,-1.3386,-1.3396,-1.3388,-1.3388,-1.3388,0,-1.3171,-1.3188,-1.3211,-1.3234,-1.3241,-1.3252,-1.3272,-1.3285,-1.3303,-1.3312,-1.3325,-1.3335,-1.335,-1.3351,-1.3373,-1.3367,-1.3377,-1.3385,-1.3386,-1.3388,-1.3388,-1.3393,-1.34,-1.3402,-1.3391,-1.3391,-1.339,0,-1.3165,-1.3194,-1.3211,-1.322,-1.3248,-1.3256,-1.3267,-1.3286,-1.3297,-1.3314,-1.3322,-1.334,-1.335,-1.3364,-1.3379,-1.3377,-1.34,-1.3401,-1.3408,-1.3408,-1.3413,-1.3412,-1.3422,-1.3417,-1.3417,-1.3417,-1.3417,0,-1.3171,-1.3184,-1.3209,-1.322,-1.3236,-1.3253,-1.3268,-1.328,-1.3297,-1.3311,-1.3323,-1.3336,-1.3354,-1.3369,-1.338,-1.3398,-1.3402,-1.341,-1.3413,-1.3409,-1.3408,-1.3416,-1.3416,-1.3418,-1.3417,-1.3417,-1.3417,0,-1.3166,-1.3184,-1.3204,-1.3229,-1.3236,-1.3247,-1.3268,-1.3279,-1.3292,-1.331,-1.3315,-1.3335,-1.3353,-1.337,-1.3393,-1.3401,-1.342,-1.3423,-1.3414,-1.3416,-1.3422,-1.3422,-1.3438,-1.3441,-1.3433,-1.3433,-1.3433,0,-1.3169,-1.318,-1.3207,-1.3218,-1.323,-1.3246,-1.3258,-1.3275,-1.3287,-1.3311,-1.3319,-1.3339,-1.3355,-1.3384,-1.3401,-1.342,-1.3424,-1.3429,-1.3427,-1.3424,-1.3426,-1.3425,-1.3427,-1.3429,-1.3429,-1.3429,-1.3429,0,-1.3172,-1.3181,-1.3198,-1.3219,-1.3233,-1.325,-1.3267,-1.3275,-1.3296,-1.3308,-1.3328,-1.3341,-1.3367,-1.3386,-1.3408,-1.3419,-1.3428,-1.3429,-1.3432,-1.3429,-1.3424,-1.3428,-1.3415,-1.3429,-1.3429,-1.3429,-1.3429,-1.3429,-1.3173,-1.3184,-1.3205,-1.3224,-1.3239,-1.3256,-1.3268,-1.3283,-1.33,-1.3323,-1.3332,-1.3353,-1.3372,-1.3402,-1.3414,-1.343,-1.3431,-1.3435,-1.3436,-1.3437,-1.3437,-1.3421,-1.3434,-1.3434,-1.3434,-1.3434,-1.3434,0,-1.3177,-1.3192,-1.321,-1.3235,-1.325,-1.3257,-1.3277,-1.329,-1.3308,-1.3326,-1.3342,-1.3366,-1.3385,-1.3404,-1.3425,-1.3435,-1.3439,-1.344,-1.3439,-1.3442,-1.3434,-1.343,-1.3436,-1.3436,-1.3436,-1.3436,-1.3436,-1.3436,-1.3182,-1.3202,-1.3213,-1.3241,-1.3255,-1.3276,-1.3287,-1.3303,-1.3317,-1.3343,-1.336,-1.3373,-1.3391,-1.3414,-1.3432,-1.3438,-1.3445,-1.3445,-1.3451,-1.3443,-1.3443,-1.3442,-1.3439,-1.3446,-1.3446,-1.3458,-1.3458,-1.3458]}]]